Change the Weather History Date:

Thursday, March 27, 2014

  Actual Average Record
Temperature  
Mean Temperature 74 °F 73 °F  
Max Temperature 79 °F 79 °F 86 °F (1981)
Min Temperature 68 °F 68 °F 57 °F (1965)
Degree Days  
Heating Degree Days 0 0  
Month to date heating degree days 0 0  
Since 1 July heating degree days 0 0  
Cooling Degree Days 9 8  
Month to date cooling degree days 179 204  
Year to date cooling degree days 555 599  
Growing Degree Days 24 (Base 50)    
Moisture  
Dew Point 69 °F    
Average Humidity 86    
Maximum Humidity 97    
Minimum Humidity 74    
Precipitation  
Precipitation 0.00 in 0.15 in 1.23 in (2013)
Month to date precipitation 1.87 4.06  
Year to date precipitation 12.27 10.97  
Snow  
Snow 0.00 in - - ()
Month to date snowfall 0.0  
Since 1 July snowfall 0.0  
Snow Depth 0.00 in    
Sea Level Pressure  
Sea Level Pressure 30.08 in    
Wind  
Wind Speed 6 mph (SSE)    
Max Wind Speed 13 mph    
Max Gust Speed 18 mph    
Visibility 10 miles    
Events      
T = Trace of Precipitation, MM = Missing Value Source: NWS Daily Summary

Daily Weather History Graph

Daily Weather History Graph

Search for Another Location

Airport or City:

Trip Planner

Search our weather history database for the weather conditions in past years. The results will help you decide how hot, cold, wet, or windy it might be!

Date:

Astronomy

Mar. 27, 2014 Rise Set
Actual Time 6:34 AM HST 6:50 PM HST
Civil Twilight 6:12 AM HST 7:13 PM HST
Nautical Twilight 5:46 AM HST 7:39 PM HST
Astronomical Twilight 5:20 AM HST 8:05 PM HST
Moon 4:11 AM HST (3/27) 4:10 PM HST (3/27)
Length of Visible Light 13h 00m
Length of Day
12h 16m
Waning Crescent, 11% of the Moon is Illuminated
Mar 27
Waning Crescent
Mar 30
New
Apr 6
First Quarter
Apr 14
Full
Apr 21
Last Quarter

Hourly Weather History & Observations

Time (HST) Temp. Dew Point Humidity Pressure Visibility Wind Dir Wind Speed Gust Speed Precip Events Conditions
12:01 AM - - N/A% 30.12 in 9.0 mi East 10.4 mph - N/A   Scattered Clouds
12:18 AM - - N/A% 30.12 in 9.0 mi ESE 11.5 mph - N/A   Mostly Cloudy
12:33 AM 73.4 °F 71.6 °F 94% 30.11 in 9.0 mi ESE 10.4 mph - N/A   Scattered Clouds
12:53 AM 73.6 °F 71.1 °F 92% 30.10 in 9.0 mi ESE 8.1 mph - N/A   Partly Cloudy
1:53 AM 73.8 °F 71.1 °F 91% 30.08 in 9.0 mi ESE 5.8 mph - N/A   Clear
2:53 AM 73.9 °F 71.1 °F 91% 30.06 in 10.0 mi Calm Calm - N/A   Clear
3:53 AM - - N/A% 30.07 in 9.0 mi WSW 4.6 mph - N/A   Clear
4:53 AM 70.0 °F 68.0 °F 93% 30.07 in 10.0 mi West 5.8 mph - N/A   Partly Cloudy
5:26 AM 69.8 °F 66.2 °F 88% 30.08 in 10.0 mi WSW 3.5 mph - N/A   Scattered Clouds
5:53 AM 70.0 °F 66.9 °F 90% 30.09 in 10.0 mi WSW 4.6 mph - N/A   Partly Cloudy
6:53 AM 68.0 °F 66.0 °F 93% 30.09 in 10.0 mi West 4.6 mph - N/A   Partly Cloudy
7:53 AM 69.8 °F 66.0 °F 88% 30.11 in 10.0 mi West 4.6 mph - N/A   Mostly Cloudy
8:53 AM 75.2 °F 68.0 °F 78% 30.12 in 10.0 mi Variable 4.6 mph - N/A   Mostly Cloudy
9:53 AM 77.0 °F 71.1 °F 82% 30.13 in 10.0 mi Calm Calm - N/A   Mostly Cloudy
10:53 AM 77.0 °F 70.0 °F 79% 30.13 in 10.0 mi East 5.8 mph - N/A   Scattered Clouds
11:53 AM 77.0 °F 71.1 °F 82% 30.11 in 10.0 mi ESE 8.1 mph - N/A   Clear
12:53 PM 78.8 °F 72.0 °F 79% 30.07 in 10.0 mi SE 10.4 mph - N/A   Partly Cloudy
1:53 PM 78.8 °F 71.1 °F 77% 30.04 in 10.0 mi SE 11.5 mph - N/A   Clear
2:53 PM 78.8 °F 70.0 °F 74% 30.03 in 10.0 mi ESE 10.4 mph - N/A   Partly Cloudy
3:53 PM 78.8 °F 71.1 °F 77% 30.03 in 10.0 mi ESE 6.9 mph - N/A   Partly Cloudy
4:53 PM 77.0 °F 70.0 °F 79% 30.03 in 10.0 mi ESE 6.9 mph - N/A   Mostly Cloudy
5:53 PM 77.0 °F 70.0 °F 79% 30.04 in 10.0 mi NE 4.6 mph - N/A   Scattered Clouds
6:53 PM 75.2 °F 69.1 °F 81% 30.06 in 9.0 mi Calm Calm - N/A   Scattered Clouds
7:53 PM 75.2 °F 69.1 °F 81% 30.07 in 10.0 mi NW 3.5 mph - N/A   Partly Cloudy
8:53 PM 73.4 °F 69.1 °F 86% 30.09 in 10.0 mi West 4.6 mph - N/A   Clear
9:53 PM 71.6 °F 69.1 °F 92% 30.10 in 10.0 mi West 4.6 mph - N/A   Clear
10:53 PM 71.6 °F 68.0 °F 88% 30.10 in 10.0 mi WNW 3.5 mph - N/A   Clear
11:53 PM - - N/A% 30.10 in 10.0 mi West 5.8 mph - N/A   Mostly Cloudy